الصفحة الرئيسية
METAR-TAF:

METAR-TAF

مطار :

Leigh Creek, أستراليا

دائرة عرض: 30-35-54S, خط طول: 138-25-36E, ارتفاع: 261 متر

مراقبة الطقس الحالي

تاريخ ووقت الإصدار 40 دقيقة قبل الساعة 17:00UTC
ريح 4 عقدة من الجنوب/الجنوب الغربي
درجة الحرارة 12°درجة مئوية
الرطوبة 58%
ضغط 1021 hPa
الرؤية 10 كم أو أكثر

METAR: YLEC 221700Z AUTO 21004KT 9999 // NCD 12/04 Q1021

زمن: 03:10 (17:40 UTC)


TAF: مفقودة

أرصاد الطقس والتوقعات من أكثر من 4000 مطار (تقارير الطقس للمطار METAR والتنبؤ بالطقس بالمطارTAF).

المحطات المتاحة هي النقط الصفراء والحمراء على الخريطة.

حرك المؤشر فوق النقطة لمعرفة اسم المحطة.

ثم انقر لمعرفة أرصاد وتوقعات الطقس.

لتغيير الخارطة: اضغط على الأزرار الخضراء مع رمز الصليب الأسود للتكبير. على الزر الأخضر مع شرطة للتصغير، أو على الأسهم الخضراء للخرائط المجاورة.


METAR-TAF: